| time (UTC) | temp F | wind direction | speed MPH | gust MPH | rain 1hr in | rain 24hr in | rain mn in | humidity % | barometer mb |
| 20260831210039 | 77 | 40 | 6.0 | 12.0 | 0.00 | 0.00 | 0.00 | 34 | 1015.2 |
| 20260831204534 | 77 | 42 | 5.0 | 11.0 | 0.00 | 0.00 | 0.00 | 35 | 1015.4 |
| 20260831203035 | 77 | 52 | 5.0 | 12.0 | 0.00 | 0.00 | 0.00 | 35 | 1015.6 |
| 20260831201607 | 77 | 43 | 5.0 | 12.0 | 0.00 | 0.00 | 0.00 | 35 | 1015.9 |
| 20260831200035 | 77 | 49 | 6.0 | 13.0 | 0.00 | 0.00 | 0.00 | 35 | 1016.1 |
| 20260831194534 | 77 | 62 | 5.0 | 12.0 | 0.00 | 0.00 | 0.00 | 36 | 1016.3 |
| 20260831193035 | 76 | 52 | 6.0 | 15.0 | 0.00 | 0.00 | 0.00 | 38 | 1016.5 |
| 20260831191531 | 75 | 44 | 5.0 | 11.0 | 0.00 | 0.00 | 0.00 | 40 | 1016.8 |
| 20260831190107 | 74 | 52 | 5.0 | 10.0 | 0.00 | 0.00 | 0.00 | 41 | 1017.1 |
| 20260831183032 | 73 | 35 | 4.0 | 10.0 | 0.00 | 0.00 | 0.00 | 44 | 1017.6 |
| 20260831181531 | 72 | 54 | 3.0 | 7.0 | 0.00 | 0.00 | 0.00 | 45 | 1017.8 |
| 20260831180033 | 72 | 26 | 3.0 | 9.0 | 0.00 | 0.00 | 0.00 | 45 | 1018.0 |
| 20260831174536 | 71 | 46 | 3.0 | 8.0 | 0.00 | 0.00 | 0.00 | 46 | 1018.1 |
| 20260831173030 | 70 | 68 | 3.0 | 7.0 | 0.00 | 0.00 | 0.00 | 47 | 1018.2 |
| 20260831170032 | 69 | 44 | 3.0 | 6.0 | 0.00 | 0.00 | 0.00 | 50 | 1018.2 |
| 20260831164530 | 67 | 32 | 2.0 | 5.0 | 0.00 | 0.00 | 0.00 | 54 | 1018.3 |
| 20260831163030 | 65 | 19 | 2.0 | 4.0 | 0.00 | 0.00 | 0.00 | 58 | 1018.4 |
| 20260831154606 | 61 | 315 | 0.0 | 0.0 | 0.00 | 0.00 | 0.00 | 65 | 1018.5 |
| 20260831153106 | 59 | 300 | 0.0 | 0.0 | 0.00 | 0.00 | 0.00 | 66 | 1018.5 |
| 20260831151533 | 57 | 247 | 0.0 | 0.0 | 0.00 | 0.00 | 0.00 | 66 | 1018.6 |
| 20260831144531 | 53 | 247 | 0.0 | 1.0 | 0.00 | 0.00 | 0.00 | 70 | 1018.3 |
| 20260831143033 | 51 | 247 | 1.0 | 3.0 | 0.00 | 0.00 | 0.00 | 71 | 1018.2 |
| 20260831141533 | 50 | 261 | 3.0 | 4.0 | 0.00 | 0.00 | 0.00 | 71 | 1018.1 |
| 20260831140148 | 50 | 322 | 0.0 | 3.0 | 0.00 | 0.00 | 0.00 | 71 | 1018.1 |
| 20260831134532 | 50 | 337 | 0.0 | 0.0 | 0.00 | 0.00 | 0.00 | 71 | 1018.1 |
| 20260831133148 | 50 | 337 | 0.0 | 0.0 | 0.00 | 0.00 | 0.00 | 71 | 1018.1 |
| 20260831131533 | 50 | 337 | 0.0 | 0.0 | 0.00 | 0.00 | 0.00 | 71 | 1018.1 |
| 20260831130034 | 50 | 337 | 0.0 | 0.0 | 0.00 | 0.00 | 0.00 | 71 | 1018.1 |
| 20260831124644 | 49 | 339 | 0.0 | 0.0 | 0.00 | 0.00 | 0.00 | 72 | 1018.1 |
| 20260831123028 | 49 | 22 | 0.0 | 0.0 | 0.00 | 0.00 | 0.00 | 71 | 1018.1 |
| 20260831121543 | 49 | 22 | 0.0 | 0.0 | 0.00 | 0.00 | 0.00 | 70 | 1018.1 |
| 20260831120029 | 50 | 22 | 0.0 | 0.0 | 0.00 | 0.00 | 0.00 | 68 | 1018.1 |
| 20260831113032 | 52 | 247 | 0.0 | 2.0 | 0.00 | 0.00 | 0.00 | 66 | 1018.2 |
| 20260831111635 | 53 | 247 | 1.0 | 3.0 | 0.00 | 0.00 | 0.00 | 65 | 1018.1 |
| 20260831104536 | 54 | 247 | 2.0 | 3.0 | 0.00 | 0.00 | 0.00 | 64 | 1018.1 |
| 20260831103035 | 54 | 247 | 2.0 | 4.0 | 0.00 | 0.00 | 0.00 | 63 | 1018.2 |
| 20260831101534 | 54 | 247 | 3.0 | 4.0 | 0.00 | 0.00 | 0.00 | 62 | 1018.3 |
| 20260831094537 | 55 | 247 | 3.0 | 5.0 | 0.00 | 0.00 | 0.00 | 61 | 1018.5 |
| 20260831093031 | 55 | 247 | 3.0 | 4.0 | 0.00 | 0.00 | 0.00 | 61 | 1018.7 |
| 20260831090149 | 55 | 247 | 3.0 | 4.0 | 0.00 | 0.00 | 0.00 | 62 | 1018.8 |
| 20260831083038 | 55 | 225 | 3.0 | 5.0 | 0.00 | 0.00 | 0.00 | 62 | 1019.0 |
| 20260831081536 | 55 | 225 | 3.0 | 5.0 | 0.00 | 0.00 | 0.00 | 63 | 1019.0 |
| 20260831080035 | 55 | 225 | 3.0 | 4.0 | 0.00 | 0.00 | 0.00 | 63 | 1019.1 |
| 20260831074534 | 55 | 225 | 4.0 | 5.0 | 0.00 | 0.00 | 0.00 | 63 | 1019.2 |
| 20260831073036 | 55 | 225 | 4.0 | 5.0 | 0.00 | 0.00 | 0.00 | 62 | 1019.2 |
| 20260831071536 | 55 | 232 | 3.0 | 4.0 | 0.00 | 0.00 | 0.00 | 62 | 1019.2 |
| 20260831064533 | 56 | 202 | 3.0 | 4.0 | 0.00 | 0.00 | 0.00 | 62 | 1019.3 |
| 20260831063148 | 56 | 202 | 3.0 | 4.0 | 0.00 | 0.00 | 0.00 | 62 | 1019.5 |
| 20260831060037 | 55 | 184 | 3.0 | 4.0 | 0.00 | 0.00 | 0.00 | 62 | 1019.5 |
| 20260831054531 | 55 | 158 | 0.0 | 2.0 | 0.00 | 0.00 | 0.00 | 61 | 1019.6 |
| 20260831051534 | 56 | 157 | 0.0 | 3.0 | 0.00 | 0.00 | 0.00 | 60 | 1019.7 |
| 20260831050031 | 56 | 158 | 2.0 | 4.0 | 0.00 | 0.00 | 0.00 | 60 | 1019.7 |
| 20260831044532 | 57 | 172 | 2.0 | 3.0 | 0.00 | 0.00 | 0.00 | 59 | 1019.8 |
| 20260831043030 | 57 | 163 | 0.0 | 3.0 | 0.00 | 0.00 | 0.00 | 59 | 1019.7 |
| 20260831040150 | 58 | 113 | 1.0 | 3.0 | 0.00 | 0.00 | 0.00 | 57 | 1019.7 |
| 20260831034534 | 58 | 345 | 2.0 | 7.0 | 0.00 | 0.00 | 0.00 | 58 | 1019.5 |
| 20260831033106 | 58 | 60 | 3.0 | 7.0 | 0.00 | 0.00 | 0.00 | 58 | 1019.5 |
| 20260831031532 | 59 | 46 | 3.0 | 5.0 | 0.00 | 0.00 | 0.00 | 56 | 1019.5 |
| 20260831030034 | 60 | 52 | 4.0 | 6.0 | 0.00 | 0.00 | 0.00 | 54 | 1019.4 |
| 20260831024530 | 62 | 50 | 4.0 | 7.0 | 0.00 | 0.00 | 0.00 | 51 | 1019.3 |
| 20260831023036 | 64 | 48 | 4.0 | 8.0 | 0.00 | 0.00 | 0.00 | 49 | 1019.2 |
| 20260831021536 | 65 | 48 | 4.0 | 8.0 | 0.00 | 0.00 | 0.00 | 47 | 1019.2 |
| 20260831020033 | 66 | 32 | 3.0 | 6.0 | 0.00 | 0.00 | 0.00 | 45 | 1019.3 |
| 20260831014535 | 67 | 23 | 4.0 | 8.0 | 0.00 | 0.00 | 0.00 | 43 | 1019.3 |
| 20260831013030 | 70 | 33 | 5.0 | 9.0 | 0.00 | 0.00 | 0.00 | 40 | 1019.3 |
| 20260831011608 | 72 | 36 | 5.0 | 11.0 | 0.00 | 0.00 | 0.00 | 38 | 1019.3 |
| 20260831010032 | 73 | 40 | 4.0 | 11.0 | 0.00 | 0.00 | 0.00 | 38 | 1019.4 |
| 20260831004531 | 75 | 31 | 3.0 | 8.0 | 0.00 | 0.00 | 0.00 | 37 | 1019.5 |
| 20260831003035 | 75 | 37 | 3.0 | 7.0 | 0.00 | 0.00 | 0.00 | 36 | 1019.5 |
| 20260831001530 | 76 | 54 | 4.0 | 10.0 | 0.00 | 0.00 | 0.00 | 35 | 1019.5 |
| 20260831000106 | 76 | 59 | 2.0 | 7.0 | 0.00 | 0.00 | 0.00 | 36 | 1019.6 |
| 20260830233035 | 75 | 42 | 3.0 | 8.0 | 0.00 | 0.00 | 0.00 | 36 | 1019.9 |
| 20260830231606 | 75 | 30 | 3.0 | 8.0 | 0.00 | 0.00 | 0.00 | 36 | 1020.0 |
| 20260830230106 | 74 | 25 | 3.0 | 8.0 | 0.00 | 0.00 | 0.00 | 38 | 1020.1 |
| 20260830224532 | 74 | 51 | 4.0 | 9.0 | 0.00 | 0.00 | 0.00 | 39 | 1020.3 |
| 20260830223032 | 73 | 49 | 4.0 | 9.0 | 0.00 | 0.00 | 0.00 | 41 | 1020.5 |
| 20260830221531 | 72 | 42 | 5.0 | 13.0 | 0.00 | 0.00 | 0.00 | 42 | 1020.6 |
| 20260830220036 | 72 | 30 | 5.0 | 11.0 | 0.00 | 0.00 | 0.00 | 42 | 1020.9 |
| 20260830214533 | 72 | 45 | 5.0 | 11.0 | 0.00 | 0.00 | 0.00 | 42 | 1021.0 |
| 20260830213035 | 72 | 54 | 5.0 | 11.0 | 0.00 | 0.00 | 0.00 | 42 | 1021.1 |
| 20260830211531 | 72 | 53 | 5.0 | 12.0 | 0.00 | 0.00 | 0.00 | 42 | 1021.0 |